TimeMST,TemperatureF,Dew PointF,Humidity,Sea Level PressureIn,VisibilityMPH,Wind Direction,Wind SpeedMPH,Gust SpeedMPH,PrecipitationIn,Events,Conditions,WindDirDegrees,DateUTC
12:53 AM,16.0,-0.9,47,30.33,10.0,WSW,9.2,-,N/A,,Clear,240,2013-01-06 07:53:00
1:53 AM,12.9,-2.0,51,30.34,10.0,WSW,8.1,-,N/A,,Clear,250,2013-01-06 08:53:00
2:53 AM,12.9,-2.9,49,30.33,10.0,Calm,Calm,-,N/A,,Clear,0,2013-01-06 09:53:00
3:53 AM,15.1,-4.0,43,30.31,10.0,WSW,9.2,-,N/A,,Clear,250,2013-01-06 10:53:00
4:53 AM,12.0,-4.0,49,30.32,10.0,SW,3.5,-,N/A,,Clear,230,2013-01-06 11:53:00
5:53 AM,12.9,-6.0,43,30.33,10.0,West,10.4,-,N/A,,Clear,270,2013-01-06 12:53:00
6:53 AM,10.9,-7.1,44,30.36,10.0,West,9.2,-,N/A,,Clear,270,2013-01-06 13:53:00
7:53 AM,15.1,-7.1,37,30.34,10.0,WNW,6.9,-,N/A,,Clear,290,2013-01-06 14:53:00
8:53 AM,21.2,-0.4,39,30.13,10.0,Calm,Calm,-,N/A,,Clear,0,2013-01-06 15:53:00
9:53 AM,36.0,1.9,24,30.19,10.0,SSW,10.4,-,N/A,,Clear,210,2013-01-06 16:53:00
10:53 AM,39.2,-0.4,19,30.09,10.0,SSW,16.1,-,N/A,,Clear,210,2013-01-06 17:53:00
11:53 AM,43.0,-4.0,14,30.12,10.0,SSW,12.7,-,N/A,,Clear,200,2013-01-06 18:53:00
12:53 PM,45.0,-4.0,13,30.08,10.0,SW,8.1,-,N/A,,Clear,220,2013-01-06 19:53:00
1:53 PM,46.9,-9.9,9,30.05,10.0,South,4.6,-,N/A,,Clear,190,2013-01-06 20:53:00
2:53 PM,45.0,-2.0,14,30.05,10.0,SSE,5.8,-,N/A,,Clear,160,2013-01-06 21:53:00
3:53 PM,45.0,-6.0,12,30.04,10.0,Calm,Calm,-,N/A,,Clear,0,2013-01-06 22:53:00
4:53 PM,39.9,-0.0,19,30.06,10.0,SW,4.6,-,N/A,,Clear,230,2013-01-06 23:53:00
5:53 PM,32.0,5.0,32,30.09,10.0,WSW,3.5,-,N/A,,Clear,250,2013-01-07 00:53:00
6:53 PM,32.0,6.1,34,30.09,10.0,West,11.5,-,N/A,,Clear,270,2013-01-07 01:53:00
7:53 PM,34.0,6.1,31,30.06,10.0,WNW,11.5,-,N/A,,Clear,290,2013-01-07 02:53:00
8:53 PM,35.1,6.1,30,30.03,10.0,West,12.7,-,N/A,,Clear,280,2013-01-07 03:53:00
9:53 PM,33.1,9.0,37,29.94,10.0,West,9.2,-,N/A,,Clear,280,2013-01-07 04:53:00
10:53 PM,37.0,6.1,28,29.90,10.0,WNW,12.7,-,N/A,,Clear,290,2013-01-07 05:53:00
11:53 PM,36.0,5.0,27,29.88,10.0,West,11.5,-,N/A,,Clear,280,2013-01-07 06:53:00